Weather History for Coatesville, PA

Change the Weather History Date:

Monday, July 1, 2013

  Actual Average (KLNS) Record (KLNS)
Temperature  
Mean Temperature 73 °F -  
Max Temperature 77 °F 81 °F 94 °F (1991)
Min Temperature 69 °F 60 °F 46 °F (1986)
Cooling Degree Days 8    
Growing Degree Days 23 (Base 50)    
Moisture  
Dew Point 72 °F    
Average Humidity 94    
Maximum Humidity 100    
Minimum Humidity 83    
Precipitation  
Precipitation 1.31 in - - ()
Sea Level Pressure  
Sea Level Pressure 29.97 in    
Wind  
Wind Speed 4 mph (SSE)    
Max Wind Speed 10 mph    
Max Gust Speed 17 mph    
Visibility 8 miles    
Events Rain    
Averages and records for this station are not official NWS values.
T = Trace of Precipitation, MM = Missing Value Source: NWS Daily Summary

Daily Weather History Graph

Daily Weather History Graph

Search for Another Location

Airport:

Trip Planner

Search our weather history database for the weather conditions in past years. The results will help you decide how hot, cold, wet, or windy it might be!

Date:

Astronomy

Jul. 01, 2013 Rise Set
Actual Time 5:38 AM EDT 8:36 PM EDT
Civil Twilight 5:05 AM EDT 9:08 PM EDT
Nautical Twilight 4:24 AM EDT 9:50 PM EDT
Astronomical Twilight 3:36 AM EDT 10:37 PM EDT
Moon 1:06 AM EDT (7/1) 2:49 PM EDT (7/1)
Length of Visible Light 16h 02m
Length of Day
14h 57m
Waning Crescent, 35% of the Moon is Illuminated
Jul 1
Waning Crescent
Jul 8
New
Jul 15
First Quarter
Jul 22
Full
Jul 29
Last Quarter

Hourly Weather History & Observations

Time (EDT) Temp. Dew Point Humidity Pressure Visibility Wind Dir Wind Speed Gust Speed Precip Events Conditions
12:15 AM 73.4 °F 71.6 °F 94% 29.91 in 10.0 mi ESE 6.9 mph - N/A   Overcast
12:35 AM 73.4 °F 71.6 °F 94% 29.91 in 10.0 mi ESE 6.9 mph - N/A   Overcast
12:55 AM 73.4 °F 73.4 °F 100% 29.92 in 8.0 mi SE 3.5 mph - N/A   Overcast
1:15 AM 73.4 °F 73.4 °F 100% 29.92 in 7.0 mi SE 3.5 mph - N/A   Overcast
1:35 AM 73.4 °F 73.4 °F 100% 29.92 in 7.0 mi ESE 3.5 mph - N/A   Overcast
1:55 AM 73.4 °F 73.4 °F 100% 29.92 in 6.0 mi SE 4.6 mph - N/A   Overcast
2:15 AM 73.4 °F 73.4 °F 100% 29.92 in 7.0 mi SSE 3.5 mph - N/A   Overcast
2:35 AM 73.4 °F 73.4 °F 100% 29.91 in 7.0 mi SSE 5.8 mph - N/A   Overcast
2:55 AM 73.4 °F 73.4 °F 100% 29.91 in 8.0 mi Calm Calm - N/A   Overcast
3:15 AM 73.4 °F 73.4 °F 100% 29.90 in 9.0 mi SSE 3.5 mph - N/A   Overcast
3:35 AM 73.4 °F 73.4 °F 100% 29.90 in 10.0 mi Calm Calm - N/A   Overcast
3:55 AM 75.2 °F 73.4 °F 94% 29.91 in 10.0 mi Calm Calm - N/A Rain Light Rain
4:15 AM 75.2 °F 73.4 °F 94% 29.91 in 10.0 mi Calm Calm - N/A   Overcast
4:35 AM 73.4 °F 73.4 °F 100% 29.91 in 9.0 mi Calm Calm - N/A   Overcast
4:55 AM 73.4 °F 73.4 °F 100% 29.91 in 9.0 mi North 3.5 mph - N/A   Overcast
5:15 AM 73.4 °F 71.6 °F 94% 29.92 in 10.0 mi Calm Calm - N/A Rain Light Rain
5:35 AM 73.4 °F 69.8 °F 88% 29.93 in 5.0 mi NW 10.4 mph - 0.03 in Rain Heavy Rain
5:55 AM 71.6 °F 69.8 °F 94% 29.93 in 3.0 mi WNW 8.1 mph - 0.32 in Rain Heavy Rain
6:15 AM 69.8 °F 69.8 °F 100% 29.94 in 1.5 mi WNW 3.5 mph - 0.37 in Rain Heavy Rain
6:35 AM 69.8 °F 69.8 °F 100% 29.95 in 2.5 mi Calm Calm - 0.52 in Rain Light Rain
6:55 AM 69.8 °F 69.8 °F 100% 29.96 in 0.8 mi Calm Calm - 0.60 in Rain Heavy Rain
7:15 AM 69.8 °F 69.8 °F 100% 29.96 in 5.0 mi Calm Calm - 0.04 in   Mostly Cloudy
7:35 AM 71.6 °F 69.8 °F 94% 29.96 in 5.0 mi Calm Calm - 0.04 in   Mostly Cloudy
7:55 AM 71.6 °F 71.6 °F 100% 29.96 in 9.0 mi South 3.5 mph - 0.04 in   Mostly Cloudy
8:15 AM 73.4 °F 71.6 °F 94% 29.97 in 8.0 mi Calm Calm - N/A   Mostly Cloudy
8:35 AM 73.4 °F 71.6 °F 94% 29.97 in 10.0 mi SE 3.5 mph - N/A   Mostly Cloudy
8:55 AM 73.4 °F 71.6 °F 94% 29.98 in 10.0 mi Calm Calm - N/A   Overcast
9:15 AM 73.4 °F 73.4 °F 100% 29.98 in 3.0 mi SE 3.5 mph - 0.02 in   Overcast
9:35 AM 73.4 °F 73.4 °F 100% 29.97 in 5.0 mi Calm Calm - 0.03 in   Overcast
9:55 AM 75.2 °F 73.4 °F 94% 29.97 in 10.0 mi SSE 4.6 mph - 0.03 in   Mostly Cloudy
10:15 AM 75.2 °F 73.4 °F 94% 29.97 in 10.0 mi SSE 5.8 mph - N/A   Mostly Cloudy
10:35 AM 75.2 °F 73.4 °F 94% 29.98 in 10.0 mi SE 3.5 mph - N/A   Overcast
10:55 AM 75.2 °F 73.4 °F 94% 29.98 in 10.0 mi SSE 3.5 mph - N/A Rain Light Rain
11:15 AM 75.2 °F 73.4 °F 94% 29.98 in 8.0 mi SSE 4.6 mph - 0.04 in Rain Heavy Rain
11:35 AM 73.4 °F 73.4 °F 100% 29.99 in 9.0 mi Calm Calm - 0.19 in   Mostly Cloudy
11:55 AM 75.2 °F 73.4 °F 94% 29.98 in 9.0 mi SSE 5.8 mph - 0.19 in   Mostly Cloudy
12:15 PM 75.2 °F 73.4 °F 94% 29.98 in 5.0 mi SSE 3.5 mph - N/A Rain Light Rain
12:35 PM 73.4 °F 73.4 °F 100% 29.98 in 5.0 mi SSE 5.8 mph - 0.01 in Rain Heavy Rain
12:55 PM 73.4 °F 73.4 °F 100% 29.99 in 1.2 mi SSE 5.8 mph - 0.10 in Rain Light Rain
1:15 PM 73.4 °F 73.4 °F 100% 29.99 in 4.0 mi SE 4.6 mph - 0.01 in Rain Light Rain
1:35 PM 73.4 °F 73.4 °F 100% 29.98 in 6.0 mi SSE 3.5 mph - 0.02 in   Mostly Cloudy
1:55 PM 75.2 °F 73.4 °F 94% 29.98 in 10.0 mi South 5.8 mph - 0.02 in   Overcast
2:15 PM 75.2 °F 73.4 °F 94% 29.97 in 7.0 mi SSE 6.9 mph - N/A Rain Light Rain
2:35 PM 75.2 °F 73.4 °F 94% 29.97 in 8.0 mi SSE 4.6 mph - 0.01 in   Mostly Cloudy
2:55 PM 75.2 °F 73.4 °F 94% 29.98 in 10.0 mi SSE 5.8 mph - 0.01 in   Mostly Cloudy
3:15 PM 73.4 °F 73.4 °F 100% 29.98 in 10.0 mi SSE 5.8 mph - N/A   Overcast
3:35 PM 75.2 °F 71.6 °F 89% 29.98 in 10.0 mi SSE 5.8 mph - N/A   Overcast
3:55 PM 77.0 °F 73.4 °F 89% 29.98 in 10.0 mi SSE 9.2 mph - N/A   Mostly Cloudy
4:15 PM 75.2 °F 71.6 °F 89% 29.99 in 10.0 mi SSE 8.1 mph - N/A   Mostly Cloudy
4:35 PM 75.2 °F 71.6 °F 89% 29.98 in 10.0 mi SSE 6.9 mph - N/A   Overcast
4:55 PM 75.2 °F 71.6 °F 89% 29.98 in 10.0 mi SE 5.8 mph - N/A   Mostly Cloudy
5:15 PM 75.2 °F 71.6 °F 89% 29.98 in 10.0 mi SSE 5.8 mph - N/A   Mostly Cloudy
5:35 PM 77.0 °F 73.4 °F 89% 29.98 in 10.0 mi SSE 8.1 mph - N/A   Mostly Cloudy
5:55 PM 75.2 °F 71.6 °F 89% 29.98 in 10.0 mi SSE 5.8 mph - N/A   Mostly Cloudy
6:15 PM 75.2 °F 71.6 °F 89% 29.98 in 10.0 mi SSE 9.2 mph - N/A   Partly Cloudy
6:35 PM 77.0 °F 73.4 °F 89% 29.99 in 10.0 mi SSE 5.8 mph - N/A   Scattered Clouds
6:55 PM 77.0 °F 73.4 °F 89% 29.99 in 10.0 mi SSE 5.8 mph - N/A   Partly Cloudy
7:15 PM 77.0 °F 71.6 °F 83% 29.99 in 10.0 mi SSE 6.9 mph - N/A   Clear
7:35 PM 77.0 °F 71.6 °F 83% 30.00 in 10.0 mi SSE 8.1 mph 17.3 mph N/A   Mostly Cloudy
7:55 PM 75.2 °F 71.6 °F 89% 30.01 in 10.0 mi SSE 6.9 mph - N/A   Scattered Clouds
8:15 PM 75.2 °F 73.4 °F 94% 30.01 in 10.0 mi SSE 8.1 mph - N/A   Scattered Clouds
8:35 PM 75.2 °F 73.4 °F 94% 30.01 in 10.0 mi SSE 4.6 mph - N/A   Mostly Cloudy
8:55 PM 75.2 °F 71.6 °F 89% 30.01 in 10.0 mi SSE 6.9 mph - N/A   Mostly Cloudy
9:15 PM 75.2 °F 71.6 °F 89% 30.02 in 10.0 mi South 5.8 mph - N/A   Mostly Cloudy
9:35 PM 75.2 °F 71.6 °F 89% 30.03 in 10.0 mi SSE 8.1 mph - N/A   Mostly Cloudy
9:55 PM 75.2 °F 71.6 °F 89% 30.03 in 10.0 mi SSE 4.6 mph - N/A   Scattered Clouds
10:15 PM 75.2 °F 71.6 °F 89% 30.04 in 10.0 mi SSE 4.6 mph - N/A   Mostly Cloudy
10:35 PM 75.2 °F 71.6 °F 89% 30.04 in 10.0 mi SSE 5.8 mph - N/A   Overcast
10:55 PM 75.2 °F 73.4 °F 94% 30.03 in 10.0 mi SSE 5.8 mph - N/A   Overcast
11:15 PM 75.2 °F 73.4 °F 94% 30.04 in 10.0 mi SE 4.6 mph - N/A   Overcast
11:35 PM 75.2 °F 71.6 °F 89% 30.04 in 10.0 mi SSE 6.9 mph - N/A   Overcast
11:55 PM 73.4 °F 71.6 °F 94% 30.05 in 10.0 mi SSE 4.6 mph - N/A   Overcast